• In Deutschland
  • Länderverzeichnis
  • Für 7 Tage
  • Wassertemperatur
  • Satellitenkarten
  • Wetterkarte
  • Widgets
  • user-avatar
    Anmelden

    Stündliche Wetter Neubrandenburg

    Heute, 24 September, Montag

    Zeit Temperatur Niederschläge Wind Luftdruck Luftfeuchtigkeit
    00:00 +8°C° 0 mm 5 m/S 757 mmHg 82%
    01:00 +8°C° 0 mm 5 m/S 758 mmHg 84%
    02:00 +7°C° 0 mm 5 m/S 758 mmHg 83%
    03:00 +7°C° 0 mm 6 m/S 759 mmHg 82%
    04:00 +7°C° 0 mm 6 m/S 759 mmHg 82%
    05:00 +7°C° 0 mm 6 m/S 760 mmHg 80%
    06:00 +6°C° 0 mm 7 m/S 761 mmHg 78%
    07:00 +6°C° 0 mm 7 m/S 761 mmHg 76%
    08:00 +9°C° 0 mm 8 m/S 762 mmHg 69%
    09:00 +10°C° 0 mm 9 m/S 763 mmHg 61%
    10:00 +11°C° 0 mm 9 m/S 763 mmHg 54%
    11:00 +12°C° 0.1 mm 9 m/S 764 mmHg 51%
    12:00 +12°C° 0.1 mm 9 m/S 764 mmHg 48%
    13:00 +13°C° 0.1 mm 9 m/S 765 mmHg 45%
    14:00 +12°C° 0.1 mm 9 m/S 765 mmHg 47%
    15:00 +12°C° 0.1 mm 8 m/S 766 mmHg 49%
    16:00 +11°C° 0.1 mm 8 m/S 766 mmHg 50%
    17:00 +10°C° 0.1 mm 7 m/S 767 mmHg 55%
    18:00 +9°C° 0.1 mm 6 m/S 767 mmHg 59%
    19:00 +8°C° 0.1 mm 5 m/S 767 mmHg 64%
    20:00 +7°C° 0 mm 5 m/S 768 mmHg 65%
    21:00 +7°C° 0 mm 5 m/S 769 mmHg 66%
    22:00 +7°C° 0 mm 5 m/S 769 mmHg 67%
    23:00 +7°C° 0 mm 4 m/S 770 mmHg 69%

    Morgen, 25 September, Dienstag

    Zeit Temperatur Niederschläge Wind Luftdruck Luftfeuchtigkeit
    00:00 +6°C° 0 mm 4 m/S 770 mmHg 70%
    01:00 +6°C° 0 mm 4 m/S 771 mmHg 71%
    02:00 +6°C° 0 mm 4 m/S 771 mmHg 73%
    03:00 +6°C° 0 mm 4 m/S 772 mmHg 74%
    04:00 +5°C° 0 mm 3 m/S 772 mmHg 76%
    05:00 +7°C° 0 mm 3 m/S 773 mmHg 76%
    06:00 +7°C° 0 mm 3 m/S 773 mmHg 76%
    07:00 +7°C° 0 mm 3 m/S 774 mmHg 75%
    08:00 +8°C° 0 mm 4 m/S 774 mmHg 68%
    09:00 +11°C° 0 mm 4 m/S 774 mmHg 60%
    10:00 +13°C° 0 mm 4 m/S 775 mmHg 52%
    11:00 +13°C° 0 mm 4 m/S 775 mmHg 49%
    12:00 +14°C° 0 mm 4 m/S 775 mmHg 47%
    13:00 +14°C° 0 mm 4 m/S 775 mmHg 44%
    14:00 +14°C° 0 mm 4 m/S 775 mmHg 45%
    15:00 +14°C° 0 mm 4 m/S 775 mmHg 46%
    16:00 +13°C° 0 mm 4 m/S 775 mmHg 47%
    17:00 +12°C° 0 mm 3 m/S 775 mmHg 53%
    18:00 +10°C° 0 mm 2 m/S 775 mmHg 59%
    19:00 +9°C° 0 mm 1 m/S 775 mmHg 65%
    20:00 +8°C° 0 mm 2 m/S 775 mmHg 66%
    21:00 +8°C° 0 mm 2 m/S 775 mmHg 67%
    22:00 +7°C° 0 mm 2 m/S 776 mmHg 68%
    23:00 +7°C° 0 mm 3 m/S 775 mmHg 69%

    übermorgen, 26 September, Mittwoch

    Zeit Temperatur Niederschläge Wind Luftdruck Luftfeuchtigkeit
    00:00 +7°C° 0 mm 3 m/S 775 mmHg 70%
    01:00 +7°C° 0 mm 3 m/S 775 mmHg 71%
    02:00 +6°C° 0 mm 4 m/S 774 mmHg 71%
    03:00 +6°C° 0 mm 4 m/S 774 mmHg 71%
    04:00 +6°C° 0 mm 4 m/S 774 mmHg 70%
    05:00 +6°C° 0 mm 5 m/S 774 mmHg 69%
    06:00 +7°C° 0 mm 5 m/S 773 mmHg 68%
    07:00 +7°C° 0 mm 5 m/S 773 mmHg 66%
    08:00 +9°C° 0 mm 6 m/S 772 mmHg 61%
    09:00 +10°C° 0 mm 6 m/S 772 mmHg 55%
    10:00 +12°C° 0 mm 7 m/S 772 mmHg 50%
    11:00 +14°C° 0 mm 7 m/S 771 mmHg 48%
    12:00 +15°C° 0 mm 7 m/S 771 mmHg 47%
    13:00 +16°C° 0 mm 7 m/S 770 mmHg 45%
    14:00 +16°C° 0 mm 7 m/S 770 mmHg 46%
    15:00 +16°C° 0 mm 7 m/S 769 mmHg 46%
    16:00 +16°C° 0 mm 6 m/S 769 mmHg 47%
    17:00 +15°C° 0 mm 6 m/S 769 mmHg 49%
    18:00 +15°C° 0 mm 6 m/S 769 mmHg 52%
    19:00 +14°C° 0 mm 5 m/S 769 mmHg 55%
    20:00 +14°C° 0 mm 5 m/S 769 mmHg 58%
    21:00 +13°C° 0 mm 6 m/S 768 mmHg 61%
    22:00 +13°C° 0 mm 6 m/S 768 mmHg 63%
    23:00 +13°C° 0 mm 6 m/S 768 mmHg 68%

    27 September, Donnerstag

    Zeit Temperatur Niederschläge Wind Luftdruck Luftfeuchtigkeit
    00:00 +13°C° 0 mm 6 m/S 768 mmHg 72%
    01:00 +13°C° 0 mm 6 m/S 768 mmHg 76%
    02:00 +13°C° 0 mm 6 m/S 768 mmHg 79%
    03:00 +13°C° 0 mm 6 m/S 768 mmHg 82%
    04:00 +13°C° 0 mm 6 m/S 768 mmHg 85%
    05:00 +13°C° 0 mm 6 m/S 768 mmHg 85%
    06:00 +13°C° 0 mm 6 m/S 768 mmHg 86%
    07:00 +13°C° 0 mm 6 m/S 768 mmHg 86%
    08:00 +14°C° 0 mm 6 m/S 768 mmHg 84%
    09:00 +15°C° 0 mm 6 m/S 768 mmHg 81%
    10:00 +16°C° 0 mm 6 m/S 768 mmHg 78%
    11:00 +17°C° 0 mm 6 m/S 768 mmHg 75%
    12:00 +19°C° 0 mm 6 m/S 768 mmHg 72%
    13:00 +20°C° 0 mm 6 m/S 767 mmHg 68%
    14:00 +20°C° 0 mm 6 m/S 767 mmHg 67%
    15:00 +21°C° 0 mm 5 m/S 767 mmHg 65%
    16:00 +21°C° 0 mm 5 m/S 766 mmHg 64%
    17:00 +20°C° 0 mm 5 m/S 766 mmHg 70%
    18:00 +19°C° 0 mm 4 m/S 766 mmHg 76%
    19:00 +17°C° 0 mm 3 m/S 766 mmHg 83%
    20:00 +17°C° 0 mm 4 m/S 765 mmHg 82%
    21:00 +17°C° 0 mm 4 m/S 765 mmHg 81%
    22:00 +15°C° 0 mm 4 m/S 764 mmHg 81%
    23:00 +15°C° 0 mm 4 m/S 764 mmHg 79%

    28 September, Freitag

    Zeit Temperatur Niederschläge Wind Luftdruck Luftfeuchtigkeit
    00:00 +15°C° 0 mm 4 m/S 763 mmHg 77%
    01:00 +15°C° 0 mm 5 m/S 763 mmHg 76%
    02:00 +14°C° 0 mm 5 m/S 762 mmHg 76%
    03:00 +14°C° 0 mm 5 m/S 762 mmHg 76%
    04:00 +13°C° 0 mm 5 m/S 761 mmHg 76%
    05:00 +13°C° 0 mm 4 m/S 761 mmHg 77%
    06:00 +13°C° 0 mm 4 m/S 761 mmHg 78%
    07:00 +12°C° 0 mm 4 m/S 761 mmHg 79%
    08:00 +13°C° 0 mm 5 m/S 762 mmHg 75%
    09:00 +14°C° 0 mm 5 m/S 762 mmHg 72%
    10:00 +14°C° 0 mm 5 m/S 762 mmHg 68%
    11:00 +15°C° 0 mm 5 m/S 763 mmHg 63%
    12:00 +15°C° 0 mm 6 m/S 763 mmHg 58%
    13:00 +15°C° 0 mm 6 m/S 763 mmHg 53%
    14:00 +15°C° 0 mm 6 m/S 763 mmHg 52%
    15:00 +14°C° 0 mm 6 m/S 763 mmHg 52%
    16:00 +14°C° 0 mm 6 m/S 763 mmHg 51%
    17:00 +13°C° 0 mm 5 m/S 764 mmHg 56%
    18:00 +11°C° 0 mm 4 m/S 764 mmHg 62%
    19:00 +10°C° 0 mm 3 m/S 765 mmHg 67%
    20:00 +10°C° 0 mm 3 m/S 765 mmHg 69%
    21:00 +8°C° 0 mm 4 m/S 765 mmHg 71%
    22:00 +8°C° 0 mm 4 m/S 766 mmHg 73%
    23:00 +9°C° 0 mm 3 m/S 766 mmHg 74%

    29 September, Samstag

    Zeit Temperatur Niederschläge Wind Luftdruck Luftfeuchtigkeit
    00:00 +9°C° 0 mm 3 m/S 766 mmHg 75%
    01:00 +8°C° 0 mm 3 m/S 767 mmHg 76%
    02:00 +8°C° 0 mm 3 m/S 767 mmHg 77%
    03:00 +8°C° 0 mm 3 m/S 768 mmHg 78%
    04:00 +8°C° 0 mm 3 m/S 768 mmHg 79%
    05:00 +8°C° 0 mm 3 m/S 768 mmHg 78%
    06:00 +8°C° 0 mm 2 m/S 769 mmHg 77%
    07:00 +8°C° 0 mm 2 m/S 770 mmHg 76%
    08:00 +10°C° 0 mm 2 m/S 770 mmHg 66%
    09:00 +13°C° 0 mm 2 m/S 770 mmHg 57%
    10:00 +15°C° 0 mm 2 m/S 771 mmHg 48%
    11:00 +15°C° 0 mm 2 m/S 771 mmHg 45%
    12:00 +16°C° 0 mm 2 m/S 771 mmHg 43%
    13:00 +16°C° 0 mm 2 m/S 771 mmHg 40%
    14:00 +16°C° 0 mm 1 m/S 771 mmHg 40%
    15:00 +16°C° 0 mm 1 m/S 770 mmHg 41%
    16:00 +16°C° 0 mm 1 m/S 770 mmHg 42%
    17:00 +14°C° 0 mm 1 m/S 770 mmHg 48%
    18:00 +12°C° 0 mm 1 m/S 770 mmHg 54%
    19:00 +11°C° 0 mm 1 m/S 771 mmHg 61%
    20:00 +10°C° 0 mm 1 m/S 771 mmHg 63%
    21:00 +9°C° 0 mm 2 m/S 771 mmHg 65%
    22:00 +8°C° 0 mm 2 m/S 771 mmHg 67%
    23:00 +8°C° 0 mm 2 m/S 771 mmHg 67%
    Mehr zeigen